Weather History for Sparta, TN

Change the Weather History Date:

Saturday, January 12, 2013

  Actual Average (KCSV) Record (KCSV)
Temperature  
Mean Temperature 63 °F 36 °F  
Max Temperature 66 °F 44 °F 67 °F (2013)
Min Temperature 60 °F 27 °F -3 °F (1981)
Degree Days  
Heating Degree Days 2    
Month to date heating degree days  
Since 1 July heating degree days  
Growing Degree Days 13 (Base 50)    
Moisture  
Dew Point 64 °F    
Average Humidity 98    
Maximum Humidity 100    
Minimum Humidity 94    
Precipitation  
Precipitation 0.00 in 0.16 in 1.61 in (1989)
Month to date precipitation 1.84  
Year to date precipitation 1.84  
Sea Level Pressure  
Sea Level Pressure 30.02 in    
Wind  
Wind Speed 6 mph (South)    
Max Wind Speed 14 mph    
Max Gust Speed -    
Visibility 10 miles    
Events      
T = Trace of Precipitation, MM = Missing Value Source: NWS Daily Summary

Daily Weather History Graph

Daily Weather History Graph

Search for Another Location

Airport:

Trip Planner

Search our weather history database for the weather conditions in past years. The results will help you decide how hot, cold, wet, or windy it might be!

Date:

Astronomy

Jan. 12, 2013 Rise Set
Actual Time 6:52 AM CST 4:48 PM CST
Civil Twilight 6:24 AM CST 5:16 PM CST
Nautical Twilight 5:53 AM CST 5:48 PM CST
Astronomical Twilight 5:22 AM CST 6:19 PM CST
Moon 7:14 AM CST (1/12) 6:12 PM CST (1/12)
Length of Visible Light 10h 52m
Length of Day
9h 55m
New Moon, 1% of the Moon is Illuminated
Jan 12
New Moon
Jan 18
First Quarter
Jan 26
Full
Feb 3
Last Quarter
Feb 10
New

Hourly Weather History & Observations

Time (CST) Temp. Dew Point Humidity Pressure Visibility Wind Dir Wind Speed Gust Speed Precip Events Conditions
12:15 AM 64.4 °F 62.6 °F 94% 30.04 in 10.0 mi South 4.6 mph - N/A   Overcast
12:35 AM 62.6 °F 62.6 °F 100% 30.05 in 9.0 mi South 5.8 mph - N/A   Overcast
12:55 AM 64.4 °F 62.6 °F 94% 30.05 in 10.0 mi SSW 8.1 mph - N/A   Unknown
1:15 AM 62.6 °F 62.6 °F 100% 30.06 in 10.0 mi SW 4.6 mph - N/A   Mostly Cloudy
1:35 AM 62.6 °F 62.6 °F 100% 30.06 in 10.0 mi SW 3.5 mph - N/A   Unknown
1:55 AM 62.6 °F 62.6 °F 100% 30.07 in 10.0 mi WSW 3.5 mph - N/A   Overcast
2:15 AM 62.6 °F 62.6 °F 100% 30.07 in 10.0 mi WSW 3.5 mph - N/A   Mostly Cloudy
2:35 AM 62.6 °F 60.8 °F 94% 30.06 in 10.0 mi Calm Calm - N/A   Overcast
2:55 AM 62.6 °F 62.6 °F 100% 30.06 in 10.0 mi SW 3.5 mph - N/A   Unknown
3:15 AM 62.6 °F 62.6 °F 100% 30.05 in 10.0 mi SSW 4.6 mph - N/A   Unknown
3:35 AM 62.6 °F 62.6 °F 100% 30.04 in 10.0 mi SSW 6.9 mph - N/A   Mostly Cloudy
3:55 AM 60.8 °F 60.8 °F 100% 30.04 in 10.0 mi SSW 4.6 mph - N/A   Scattered Clouds
4:15 AM 60.8 °F 60.8 °F 100% 30.04 in 10.0 mi SSW 4.6 mph - N/A   Unknown
4:35 AM 60.8 °F 59.0 °F 94% 30.04 in 10.0 mi SSW 5.8 mph - N/A   Mostly Cloudy
4:55 AM 60.8 °F 60.8 °F 100% 30.03 in 10.0 mi SSW 6.9 mph - N/A   Partly Cloudy
5:15 AM 62.6 °F 60.8 °F 94% 30.04 in 10.0 mi SSW 8.1 mph - N/A   Partly Cloudy
5:35 AM 62.6 °F 62.6 °F 100% 30.05 in 10.0 mi SSW 8.1 mph - N/A   Mostly Cloudy
5:55 AM 62.6 °F 62.6 °F 100% 30.06 in 10.0 mi SW 6.9 mph - N/A   Overcast
6:15 AM 62.6 °F 62.6 °F 100% 30.05 in 10.0 mi South 6.9 mph - N/A   Mostly Cloudy
6:35 AM 62.6 °F 62.6 °F 100% 30.06 in 10.0 mi South 4.6 mph - N/A   Mostly Cloudy
6:55 AM 62.6 °F 62.6 °F 100% 30.06 in 10.0 mi South 4.6 mph - N/A   Overcast
7:15 AM 64.4 °F 62.6 °F 94% 30.06 in 10.0 mi SSE 6.9 mph - N/A   Mostly Cloudy
7:35 AM 64.4 °F 64.4 °F 100% 30.07 in 10.0 mi South 6.9 mph - N/A   Mostly Cloudy
7:55 AM 64.4 °F 64.4 °F 100% 30.07 in 10.0 mi South 6.9 mph - N/A   Mostly Cloudy
8:15 AM 64.4 °F 64.4 °F 100% 30.08 in 10.0 mi South 6.9 mph - N/A   Unknown
8:35 AM 64.4 °F 64.4 °F 100% 30.08 in 8.0 mi South 8.1 mph - N/A   Unknown
8:55 AM 64.4 °F 64.4 °F 100% 30.08 in 10.0 mi South 8.1 mph - N/A   Mostly Cloudy
9:15 AM 64.4 °F 64.4 °F 100% 30.08 in 6.0 mi South 6.9 mph - N/A   Scattered Clouds
9:35 AM 64.4 °F 64.4 °F 100% 30.08 in 7.0 mi South 6.9 mph - N/A   Partly Cloudy
9:55 AM 64.4 °F 64.4 °F 100% 30.08 in 7.0 mi SSW 8.1 mph - N/A   Mostly Cloudy
10:15 AM 64.4 °F 64.4 °F 100% 30.08 in 2.0 mi South 4.6 mph - N/A   Mostly Cloudy
10:35 AM 64.4 °F 64.4 °F 100% 30.07 in 10.0 mi South 3.5 mph - N/A   Mostly Cloudy
10:55 AM 66.2 °F 64.4 °F 94% 30.05 in 10.0 mi South 4.6 mph - N/A   Unknown
11:15 AM 64.4 °F 64.4 °F 100% 30.05 in 10.0 mi South 8.1 mph - N/A   Mostly Cloudy
11:35 AM 64.4 °F 64.4 °F 100% 30.04 in 6.0 mi South 6.9 mph - N/A   Mostly Cloudy
11:55 AM 64.4 °F 64.4 °F 100% 30.03 in 10.0 mi South 8.1 mph - N/A   Overcast
12:15 PM 66.2 °F 64.4 °F 94% 30.03 in 10.0 mi South 9.2 mph - N/A   Overcast
12:35 PM 64.4 °F 64.4 °F 100% 30.03 in 2.0 mi SSW 9.2 mph - N/A   Overcast
12:55 PM 64.4 °F 64.4 °F 100% 30.02 in 10.0 mi SSW 9.2 mph - N/A   Unknown
1:15 PM 66.2 °F 66.2 °F 100% 30.02 in 10.0 mi SSW 13.8 mph - N/A   Overcast
1:35 PM 66.2 °F 66.2 °F 100% 30.02 in 10.0 mi SSW 13.8 mph - N/A   Overcast
1:55 PM 66.2 °F 66.2 °F 100% 30.02 in 10.0 mi SW 11.5 mph - N/A   Overcast
2:15 PM 66.2 °F 66.2 °F 100% 30.01 in 10.0 mi SW 11.5 mph - N/A   Overcast
2:35 PM 66.2 °F 66.2 °F 100% 30.01 in 10.0 mi SSW 11.5 mph - N/A   Overcast
2:55 PM 64.4 °F 64.4 °F 100% 30.01 in 5.0 mi SSW 8.1 mph - N/A   Overcast
3:15 PM 64.4 °F 64.4 °F 100% 30.00 in 10.0 mi South 6.9 mph - N/A   Overcast
3:35 PM 66.2 °F 64.4 °F 94% 30.00 in 10.0 mi SSW 3.5 mph - N/A   Mostly Cloudy
3:55 PM 64.4 °F 64.4 °F 100% 30.00 in 10.0 mi Calm Calm - N/A   Scattered Clouds
4:15 PM 64.4 °F 64.4 °F 100% 30.00 in 10.0 mi SSE 4.6 mph - N/A   Unknown
4:35 PM 64.4 °F 64.4 °F 100% 30.00 in 10.0 mi South 4.6 mph - N/A   Overcast
4:55 PM 64.4 °F 64.4 °F 100% 29.99 in 10.0 mi SSE 5.8 mph - N/A   Overcast
5:15 PM 66.2 °F 64.4 °F 94% 29.99 in 10.0 mi South 5.8 mph - N/A   Overcast
5:35 PM 66.2 °F 66.2 °F 100% 29.98 in 10.0 mi South 8.1 mph - N/A   Unknown
5:55 PM 66.2 °F 64.4 °F 94% 29.97 in 10.0 mi South 8.1 mph - N/A   Mostly Cloudy
6:15 PM 64.4 °F 64.4 °F 100% 29.97 in 10.0 mi South 8.1 mph - N/A   Scattered Clouds
6:35 PM 64.4 °F 64.4 °F 100% 29.98 in 10.0 mi South 6.9 mph - N/A   Partly Cloudy
7:15 PM 64.4 °F 64.4 °F 100% 29.96 in 10.0 mi South 9.2 mph - N/A   Mostly Cloudy
7:35 PM 64.4 °F 64.4 °F 100% 29.95 in 10.0 mi South 9.2 mph - N/A   Partly Cloudy
7:55 PM 64.4 °F 64.4 °F 100% 29.96 in 10.0 mi South 8.1 mph - N/A   Partly Cloudy
8:15 PM 64.4 °F 64.4 °F 100% 29.96 in 10.0 mi SSW 8.1 mph - N/A   Scattered Clouds
8:35 PM 64.4 °F 64.4 °F 100% 29.96 in 10.0 mi South 8.1 mph - N/A   Mostly Cloudy
8:55 PM 64.4 °F 64.4 °F 100% 29.96 in 10.0 mi South 6.9 mph - N/A   Scattered Clouds
9:15 PM 64.4 °F 64.4 °F 100% 29.95 in 10.0 mi South 8.1 mph - N/A   Partly Cloudy
9:35 PM 64.4 °F 62.6 °F 94% 29.95 in 10.0 mi South 9.2 mph - N/A   Clear
9:55 PM 64.4 °F 62.6 °F 94% 29.95 in 10.0 mi South 9.2 mph - N/A   Clear
10:15 PM 64.4 °F 62.6 °F 94% 29.95 in 10.0 mi South 9.2 mph - N/A   Clear
10:35 PM 64.4 °F 62.6 °F 94% 29.94 in 10.0 mi South 11.5 mph - N/A   Mostly Cloudy
10:55 PM 64.4 °F 62.6 °F 94% 29.94 in 10.0 mi South 8.1 mph - N/A   Overcast
11:15 PM 64.4 °F 62.6 °F 94% 29.94 in 10.0 mi South 11.5 mph - N/A   Overcast
11:35 PM 64.4 °F 62.6 °F 94% 29.93 in 10.0 mi South 8.1 mph - N/A   Overcast
11:55 PM 64.4 °F 62.6 °F 94% 29.93 in 10.0 mi South 13.8 mph - N/A   Overcast